sat.trackr.live / text

‹ back to catalog

KUIPER-00251

NORAD 67156 · 2025-301Z

PAYLOAD ACTIVE UNKNOWN

§ Identity

Operator
Country
US
Launch date
2025-12-16
Launch site
AFETR
Launch vehicle
Mass (kg)
RCS (m²)

External: N2YO · Heavens-Above · Gunter

§ Orbital elements

Epoch: 2026-05-25T01:51:02.709216Z

Period
97.30 min
Inclination
51.9004°
Eccentricity
0.0001558
Mean motion
14.79930823 rev/d
Perigee alt
628.5 km
Apogee alt
630.6 km
Semi-major
7,007.7 km
B*
1.7723e-4
RAAN
80.3734°
Arg perigee
152.9077°
Mean anomaly
207.1967°
Rev number
2,533

§ Raw data

KUIPER-002511 67156U 25301Z   26145.07711469  .00001130  00000+0  17723-3 0  99962 67156  51.9004  80.3734 0001558 152.9077 207.1967 14.79930823 25332

JSON: /api/v1/satellites/67156 · /tle

For live sub-satellite position, see the globe view (requires WebGL).

§ Visibility from observer

Set your observer location to see the next 7 days of passes ≥ 10°. The values pass through the URL so the page stays shareable.

No JS? Fill the form by hand. The geolocation button needs JavaScript.